DW7572 Weather Reports


time (UTC)temp
C
wind
direction
speed
KPH
gust
KPH
rain 1hr
cm
rain 24hr
cm
rain mn
cm
humidity
%
barometer
mb
20260901143517 22 0.0 3.2 0.00 0.03 0.03 91 1015.2
20260901142537 22 0.0 0.0 0.00 0.03 0.03 94 1015.3
20260901141537 21 0.0 0.0 0.00 0.03 0.03 95 1015.4
20260901140522 21 0.0 0.0 0.00 0.03 0.03 96 1015.3
20260901135518 20 0.0 0.0 0.00 0.03 0.03 97 1015.6
20260901134517 20 0.0 0.0 0.00 0.03 0.03 97 1015.6
20260901133517 20 0.0 0.0 0.00 0.03 0.03 98 1015.7
20260901132518 18 0.0 0.0 0.00 0.03 0.03 98 1015.6
20260901131517 18 0.0 0.0 0.00 0.03 0.03 98 1015.6
20260901130517 17 0.0 0.0 0.00 0.03 0.03 98 1015.4
20260901125538 16 0.0 0.0 0.00 0.03 0.03 98 1015.3
20260901124538 16 0.0 0.0 0.00 0.03 0.03 98 1015.2
20260901123557 16 0.0 0.0 0.00 0.03 0.03 98 1015.0
20260901122517 16 0.0 0.0 0.03 0.03 0.03 98 1015.0
20260901121518 16 0.0 0.0 0.03 0.03 0.03 98 1014.8
20260901120518 16 0.0 0.0 0.03 0.03 0.03 98 1014.8
20260901115519 15 0.0 0.0 0.03 0.03 0.03 98 1014.7
20260901114537 15 0.0 0.0 0.03 0.03 0.03 98 1014.8
20260901113518 15 0.0 1.6 0.03 0.03 0.03 98 1014.7
20260901112517 15 0 3.2 4.8 0.00 0.00 0.00 98 1014.8
20260901111517 16 0.0 3.2 0.00 0.00 0.00 98 1015.4
20260901110538 15 0.0 0.0 0.00 0.00 0.00 98 1014.7
20260901105517 15 0.0 0.0 0.00 0.00 0.00 98 1014.7
20260901104517 16 0.0 0.0 0.00 0.00 0.00 98 1014.7
20260901103538 16 0.0 0.0 0.00 0.00 0.00 98 1014.6
20260901102516 15 0.0 0.0 0.00 0.00 0.00 98 1014.6
20260901101517 16 0.0 0.0 0.00 0.00 0.00 98 1014.5
20260901100557 16 0.0 0.0 0.00 0.00 0.00 98 1014.5
20260901095517 16 0.0 0.0 0.00 0.00 0.00 98 1014.4
20260901094516 16 0.0 0.0 0.00 0.00 0.00 97 1014.5
20260901093516 16 0.0 0.0 0.00 0.00 0.00 98 1014.5
20260901092536 16 0.0 0.0 0.00 0.00 0.00 98 1014.5
20260901091517 16 0.0 0.0 0.00 0.00 0.00 98 1014.3
20260901090516 16 0.0 0.0 0.00 0.00 0.00 97 1014.2
20260901085516 16 0.0 0.0 0.00 0.00 0.00 97 1014.2
20260901084517 16 0.0 0.0 0.00 0.00 0.00 97 1014.2
20260901083517 16 0 1.6 3.2 0.00 0.00 0.00 97 1014.3
20260901082516 16 0 3.2 4.8 0.00 0.00 0.00 97 1014.4
20260901081536 16 0.0 3.2 0.00 0.00 0.00 97 1014.5
20260901080517 16 0 3.2 4.8 0.00 0.00 0.00 97 1014.3
20260901075517 16 0 1.6 3.2 0.00 0.00 0.00 97 1014.3
20260901074516 16 0.0 0.0 0.00 0.00 0.00 97 1014.4
20260901073516 16 0.0 1.6 0.00 0.00 0.00 97 1014.2
20260901072516 16 0.0 0.0 0.00 0.00 0.00 96 1014.4
20260901071536 16 0.0 0.0 0.00 0.00 0.00 97 1014.4
20260901070518 16 0.0 1.6 0.00 0.00 0.00 97 1014.5
20260901065519 16 0.0 1.6 0.00 0.00 0.00 97 1014.5
20260901064516 16 0.0 0.0 0.00 0.00 0.00 96 1014.5
20260901063554 16 0.0 0.0 0.00 0.00 0.00 95 1014.6
20260901062536 17 0 3.2 4.8 0.00 0.00 0.00 96 1014.7
20260901061516 17 0 3.2 4.8 0.00 0.00 0.00 96 1014.6
20260901060520 17 0 3.2 4.8 0.00 0.00 0.00 96 1014.7
20260901055521 17 0 3.2 4.8 0.00 0.00 0.00 96 1014.5
20260901054517 17 0 1.6 3.2 0.00 0.00 0.00 96 1014.5
20260901053518 17 0 3.2 6.4 0.00 0.00 0.00 96 1014.4
20260901052537 17 0 3.2 4.8 0.00 0.00 0.00 96 1014.3
20260901051518 17 0.0 0.0 0.00 0.00 0.00 95 1014.4
20260901050536 17 0.0 1.6 0.00 0.00 0.00 95 1014.4
20260901045517 17 0.0 0.0 0.00 0.00 0.00 95 1014.2
20260901044518 17 0.0 0.0 0.00 0.00 0.00 95 1014.2
20260901043522 17 0.0 0.0 0.00 0.00 0.00 95 1014.1
20260901042517 17 0.0 0.0 0.00 0.00 0.00 95 1014.0
20260901041517 17 0.0 0.0 0.00 0.00 0.00 94 1013.9
20260901040538 18 0 3.2 4.8 0.00 0.00 0.00 95 1013.9
20260901035517 18 0 1.6 4.8 0.00 0.00 0.00 94 1013.9
20260901034517 18 0 1.6 3.2 0.00 0.00 0.00 93 1013.8
20260901033537 18 0 1.6 3.2 0.00 0.00 0.00 94 1013.8
20260901032517 18 0.0 1.6 0.00 0.00 0.00 93 1013.6
20260901031517 18 0.0 3.2 0.00 0.00 0.00 91 1013.7
20260901030527 20 0.0 3.2 0.00 0.00 0.00 90 1013.7
20260901025517 21 0.0 0.0 0.00 0.00 0.00 89 1013.4
20260901024517 20 0.0 0.0 0.00 0.00 0.00 91 1013.4
20260901023517 20 0.0 0.0 0.00 0.00 0.00 92 1013.3
20260901022517 20 0.0 0.0 0.00 0.00 0.00 92 1013.4
20260901021517 20 0.0 0.0 0.00 0.00 0.00 91 1013.3
20260901020517 21 0.0 0.0 0.00 0.00 0.00 87 1013.3
20260901015519 22 0.0 1.6 0.00 0.00 0.00 83 1013.4
20260901014522 22 0 3.2 3.2 0.00 0.00 0.00 83 1013.5
20260901013517 22 0 3.2 3.2 0.00 0.00 0.00 81 1013.2
20260901012518 23 0 3.2 4.8 0.00 0.00 0.00 82 1013.3
20260901011516 23 0 3.2 3.2 0.00 0.00 0.00 79 1013.4
20260901010517 23 0 3.2 3.2 0.00 0.00 0.00 80 1013.4
20260901005516 24 0 3.2 4.8 0.00 0.00 0.00 77 1013.2
20260901004516 24 0 3.2 4.8 0.00 0.00 0.00 80 1013.1
20260901003516 25 0 3.2 4.8 0.00 0.00 0.00 76 1013.2
20260901002517 25 0 1.6 3.2 0.00 0.00 0.00 76 1013.1
20260901001516 25 338 6.4 9.7 0.00 0.00 0.00 74 1012.9
20260901000516 26 338 4.8 6.4 0.00 0.00 0.00 75 1012.9
20260831235522 26 338 6.4 8.0 0.00 0.00 0.00 75 1013.0
20260831234537 27 338 4.8 6.4 0.00 0.00 0.00 71 1013.1
20260831233542 27 338 4.8 8.0 0.00 0.00 0.00 68 1013.2
20260831232516 27 338 6.4 9.7 0.00 0.00 0.00 66 1013.1
20260831231516 27 0 6.4 12.9 0.00 0.00 0.00 66 1013.2
20260831230536 27 0 9.7 14.5 0.00 0.00 0.00 63 1013.0
20260831225516 28 338 12.9 17.7 0.00 0.00 0.00 63 1013.1
20260831224516 28 338 12.9 19.3 0.00 0.00 0.00 64 1013.1
20260831223516 28 315 9.7 14.5 0.00 0.00 0.00 61 1013.1
20260831222516 28 338 12.9 16.1 0.00 0.00 0.00 62 1013.0
20260831221516 29 338 11.3 16.1 0.00 0.00 0.00 59 1013.1
20260831220516 29 338 12.9 17.7 0.00 0.00 0.00 59 1013.0
20260831215516 30 338 9.7 16.1 0.00 0.00 0.00 58 1013.0
20260831214517 29 338 6.4 9.7 0.00 0.00 0.00 58 1013.1
20260831213516 29 315 9.7 14.5 0.00 0.00 0.00 54 1012.9
20260831212516 30 338 11.3 14.5 0.00 0.00 0.00 56 1012.7
20260831211536 29 338 8.0 12.9 0.00 0.00 0.00 57 1012.8
20260831210516 30 338 9.7 14.5 0.00 0.00 0.00 54 1012.6
20260831205516 30 0 11.3 16.1 0.00 0.00 0.00 57 1012.7
20260831204516 30 315 11.3 19.3 0.00 0.00 0.00 54 1012.6
20260831203517 30 338 9.7 16.1 0.00 0.00 0.00 55 1012.7
20260831202516 30 338 12.9 19.3 0.00 0.00 0.00 56 1012.6
20260831201516 30 0 9.7 14.5 0.00 0.00 0.00 58 1012.5
20260831200516 30 338 12.9 17.7 0.00 0.00 0.00 55 1012.5
20260831195557 30 338 11.3 17.7 0.00 0.00 0.00 59 1012.4
20260831194516 29 338 14.5 20.9 0.00 0.00 0.00 58 1012.6
20260831193516 29 338 12.9 20.9 0.00 0.00 0.00 57 1012.6
20260831192516 29 0 11.3 17.7 0.00 0.00 0.00 58 1012.5
20260831191516 28 0 12.9 17.7 0.00 0.00 0.00 58 1012.6
20260831190516 29 338 11.3 17.7 0.00 0.00 0.00 59 1012.6
20260831185516 28 338 14.5 19.3 0.00 0.00 0.00 59 1012.6
20260831184516 28 338 14.5 20.9 0.00 0.00 0.00 57 1012.5
20260831183537 28 338 11.3 16.1 0.00 0.00 0.00 66 1012.5
20260831182516 28 315 12.9 20.9 0.00 0.00 0.00 68 1012.6
20260831181516 28 315 16.1 22.5 0.00 0.00 0.00 69 1012.6
20260831180516 27 338 14.5 19.3 0.00 0.00 0.00 72 1012.5
20260831175516 27 315 14.5 19.3 0.00 0.00 0.00 72 1012.6
20260831174516 27 338 12.9 17.7 0.00 0.00 0.00 77 1012.8
20260831173516 27 315 12.9 19.3 0.00 0.00 0.00 77 1012.7
20260831172515 26 338 11.3 19.3 0.00 0.00 0.00 78 1012.6
20260831171515 27 293 11.3 17.7 0.00 0.00 0.00 82 1012.6
20260831170516 26 315 11.3 17.7 0.00 0.00 0.00 84 1012.8
20260831165537 26 315 12.9 17.7 0.00 0.00 0.00 84 1012.8
20260831164516 25 315 11.3 16.1 0.00 0.00 0.00 85 1012.7
20260831163516 25 338 14.5 19.3 0.00 0.00 0.00 85 1012.7
20260831162515 25 338 12.9 17.7 0.00 0.00 0.00 86 1012.7
20260831161516 25 338 14.5 19.3 0.00 0.00 0.00 86 1012.7
20260831160515 25 315 14.5 20.9 0.00 0.00 0.00 87 1012.4
20260831155515 25 315 14.5 22.5 0.00 0.00 0.00 88 1012.3
20260831154538 25 338 14.5 19.3 0.00 0.00 0.00 91 1012.1
20260831153517 25 315 12.9 17.7 0.00 0.00 0.00 92 1012.0
20260831152538 24 338 12.9 17.7 0.00 0.00 0.00 93 1011.9
20260831151517 24 315 12.9 19.3 0.00 0.00 0.00 94 1011.9
20260831150517 24 338 12.9 17.7 0.00 0.00 0.00 96 1011.6
20260831145518 23 315 14.5 19.3 0.00 0.00 0.00 96 1011.6
20260831144517 23 338 12.9 17.7 0.00 0.00 0.00 96 1011.4